sat.trackr.live / text

‹ back to catalog

STARLINK-32845

NORAD 62815 · 2025-018K

PAYLOAD ACTIVE UNKNOWN

§ Identity

Operator
Country
US
Launch date
2025-01-24
Launch site
AFWTR
Launch vehicle
Mass (kg)
RCS (m²)

Purposes: comms

External: N2YO · Heavens-Above · Gunter

§ Orbital elements

Epoch: 2026-05-25T04:29:28.536576Z

Period
94.10 min
Inclination
53.1601°
Eccentricity
0.0000406
Mean motion
15.30211344 rev/d
Perigee alt
474.9 km
Apogee alt
475.5 km
Semi-major
6,853.3 km
B*
5.1400e-4
RAAN
314.0492°
Arg perigee
110.0882°
Mean anomaly
250.0162°
Rev number
7,488

§ Raw data

STARLINK-328451 62815U 25018K   26145.18713584  .00014900  00000+0  51400-3 0  99992 62815  53.1601 314.0492 0000406 110.0882 250.0162 15.30211344 74880

JSON: /api/v1/satellites/62815 · /tle

For live sub-satellite position, see the globe view (requires WebGL).

§ Visibility from observer

Set your observer location to see the next 7 days of passes ≥ 10°. The values pass through the URL so the page stays shareable.

No JS? Fill the form by hand. The geolocation button needs JavaScript.